SCP
0 0 0 0 0 0 0 0 0 0 0 -0 0 0 -0 -0 -0 -0 0 -0 -0 -0 -0 -0 -0 -0 -0 -0 -0 -0 -0 -0 -0 -0 -0 -0 -0 -0 -0 -0 -0 -0 -0 -0 -0 -0 -0 -0 -0
0 0 0 0 0 0 -0 0 0 0 -0 0 0 0 0 -0 -0 -0 -0 -0 -0 -0 -0 -0 -0 -0 -0 -0 -0 -0 -0 -0 -0 -0 -0 -0 -0 -0 -0 -0 -0 -0 -0 -0 -0 -0 -0 -0 -0
0 0 0 0 0 -0 -0 -0 0 0 0 0 0 0 -0 -0 -0 -0 -0 -0 -0 -0 -0 -0 -0 -0 -0 -0 -0 -0 -0 -0 -0 -0 -0 -0 -0 -0 -0 -0 -0 -0 -0 -0 -0 -0 -0 -0 -0
0 -0 0 -0 -0 -0 -0 -0 0 -0 0 0 -0 0 0 -0 -0 -0 -0 -0 -0 -0 -0 -0 -0 -0 -0 -0 -0 -0 -0 -0 -0 -0 -0 -0 -0 -0 -0 -0 -0 -0 -0 -0 -0 -0 -0 -0 -0
0 0 0 0 0 -0 -0 0 -0 -0 0 -0 0 -0 -0 -0 -0 -0 -0 -0 -0 -0 -0 -0 -0 -0 -0 -0 -0 -0 -0 -0 -0 -0 -0 -0 -0 -0 -0 -0 -0 -0 -0 -0 -0 -0 -0 -0 -0
-0 -0 -0 -0 -0 0 -0 -0 -0 -0 -0 -0 -0 -0 -0 -0 -0 -0 -0 -0 -0 -0 -0 -0 -0 -0 -0 -0 -0 -0 -0 -0 -0 -0 -0 -0 -0 -0 -0 -0 -0 -0 -0 -0 -0 -0 -0 -0 -0
0 -0 0 -0 -0 -0 0 -0 -0 -0 -0 -0 -0 -0 -0 -0 -0 -0 -0 -0 -0 -0 -0 -0 -0 -0 -0 -0 -0 -0 -0 -0 -0 -0 -0 -0 -0 -0 -0 -0 -0 -0 -0 -0 -0 -0 -0 -0 -0
0 0 -0 -0 -0 -0 0 0 0 -0 -0 -0 0 -0 0 -0 -0 -0 -0 -0 -0 -0 -0 -0 -0 -0 -0 -0 -0 -0 -0 -0 -0 -0 -0 -0 -0 -0 -0 -0 -0 -0 -0 -0 -0 -0 -0 -0 -0
0 0 0 -0 0 0 0 0 0 0 0 0 -0 0 0 -0 -0 -0 -0 -0 -0 -0 -0 -0 -0 -0 -0 -0 -0 0 -0 -0 -0 0 -0 -0 -0 -0 -0 -0 -0 -0 -0 -0 -0 -0 -0 -0 -0
0 0 0 0 0 0 0 0 0 0 -0 -0 -0 -0 0 -0 -0 -0 -0 -0 -0 -0 -0 0 0 0 0 0 0 0 0 0 0 0 0 0 0 0 0 0 0 -0 -0 -0 -0 -0 -0 0 0
0 0 0 0 0 0 0 0 0 0 0 -0 -0 -0 -0 -0 -0 -0 -0 -0 -0 -0 0 -0 0 0 0 0 0 0 0 0 0 0 0 0 0 0 0 0 0 0 0 0 0 0 0 0 0
0 0 0 0 0 0 0 0 0 -0 -0 0 0 0 -0 -0 -0 -0 -0 -0 -0 -0 0 0 0 0 0 0 0 0 0 0 0 0 0 0 0 0 0 0 0 0 0 0 0 0 0 0 0
0 0 0 0 0 0 0 0 0 0 0 0 0 0 0 -0 -0 -0 -0 0 -0 -0 0 0 0 0 0 0 0 0 0 0 0 0 0 0 0 0 0 0 0 0 0 0 0 0 0 0 0
0 0 0 0 0 0 0 0 0 0 0 -0 -0 -0 -0 -0 -0 0 -0 -0 -0 0 0 0 0 0 0 0 0 0 0 0 0 0 0 0 0 0 0 0 0 0 0 0 0 0 0 0 0
0 0 0 0 0 0 0 0 0 0 0 0 0 0 -0 0 0 0 0 0 0 0 0 0 0 0 0 0 0 0 0 0 0 0 0 0 0 0 0 0 0 0 0 0 0 0 0 0 0
0 0 0 0 0 0 0 0 0 0 0 0 0 0 0 0 0 0 0 0 0 0 0 0 0 0 0 0 0 0 0 0 1 0 0 0 0 0 0 0 0 0 0 0 0 0 0 0 0
0 0 0 0 0 0 0 0 0 0 0 0 0 0 0 0 0 0 0 0 0 0 0 0 0 0 0 0 0 0 0 0 0 0 0 0 0 0 0 0 0 0 0 0 0 0 0 0 0
0 0 0 0 -0 0 0 0 0 0 0 0 -0 0 0 0 0 0 0 0 0 0 0 0 0 0 0 0 0 0 0 0 0 0 0 0 0 0 0 0 0 0 0 0 0 0 0 0 0
0 0 0 0 0 0 0 0 0 0 0 0 0 0 0 0 0 0 0 0 0 0 0 0 0 0 0 0 0 0 0 0 0 0 0 0 0 0 0 0 0 0 0 0 0 0 0 0 0
0 0 0 0 0 0 0 0 -0 0 0 0 0 0 0 0 0 0 0 0 0 0 0 0 0 0 0 0 0 0 0 0 0 0 0 0 0 0 0 0 0 0 0 0 0 0 0 0 0
0 0 0 0 0 -0 -0 -0 -0 -0 0 0 0 0 0 0 0 0 0 0 0 0 0 0 0 0 0 0 0 0 0 0 0 0 0 0 0 0 0 0 0 0 0 0 0 0 0 0 0
0 0 0 0 0 0 0 -0 0 0 0 0 0 0 0 0 0 0 0 0 0 0 0 0 0 0 0 0 0 0 0 0 0 0 0 0 0 0 0 0 0 0 0 0 0 0 0 0 0
0 0 0 0 0 0 0 0 0 0 0 0 0 0 0 0 0 0 0 0 0 0 0 0 0 0 0 0 0 0 0 0 0 0 0 0 0 0 0 0 0 0 0 0 0 0 0 0 0
0 0 0 0 0 0 0 0 -0 0 0 0 0 0 0 0 0 0 0 0 0 0 0 0 0 0 0 0 0 0 0 0 0 0 0 0 0 0 0 0 0 0 0 0 0 0 0 0 0
0 0 0 0 0 0 0 0 0 0 0 0 0 0 0 0 0 0 0 0 0 0 0 0 0 0 0 0 0 0 0 0 0 0 0 0 0 0 0 0 0 0 0 0 0 0 0 0 0
0 0 0 0 0 0 0 0 0 0 0 0 0 0 0 0 0 0 0 0 0 0 0 0 0 0 0 0 0 0 0 0 0 0 0 0 0 0 0 0 0 0 0 0 0 0 0 0 0
0 0 0 0 0 0 0 0 0 0 0 0 0 0 0 0 0 0 0 0 0 0 0 0 0 0 0 0 0 0 0 0 0 0 0 0 0 0 0 0 0 0 0 0 0 0 0 0 0
0 0 0 0 0 0 0 0 0 0 0 0 0 0 0 0 0 0 0 0 0 0 -0 -0 -0 -0 0 0 0 0 0 0 0 0 0 0 0 0 0 0 0 0 0 0 0 0 0 0 0
0 0 0 0 0 0 0 0 0 0 0 0 0 0 0 0 0 0 0 0 0 0 -0 -0 -0 -0 -0 0 0 0 0 0 0 0 0 0 0 0 0 0 0 0 0 0 0 0 0 0 0
0 0 0 0 0 0 0 0 0 0 0 0 0 0 0 0 0 0 0 0 0 -0 -0 -0 -0 -0 -0 0 0 0 0 0 0 0 0 0 0 0 0 0 0 0 0 0 0 0 0 0 0
Wind_Speed_500mb
1 2 1 5 11 7 3 7 4 9 9 6 5 5 6 11 13 7 19 24 30 36 35 34 32 29 23 19 16 13 11 13 15 18 20 22 21 20 20 21 23 25 30 32 22 24 31 36 37
6 5 2 5 10 8 13 10 10 11 10 8 8 10 9 3 5 10 30 28 33 34 35 36 35 30 25 23 20 15 10 10 12 17 20 21 20 20 21 20 21 24 35 27 19 19 27 29 33
9 8 10 6 6 7 8 4 8 10 9 9 7 8 9 3 4 16 15 34 34 32 33 36 35 31 27 23 20 15 10 9 10 14 17 18 18 18 19 18 19 29 30 23 17 19 24 25 29
4 5 9 13 6 3 6 6 9 17 7 6 6 9 3 8 13 16 27 33 34 31 30 35 36 33 29 25 22 17 11 12 9 13 15 16 17 16 18 17 20 26 27 22 19 19 21 23 25
7 10 12 10 6 3 3 4 13 14 8 11 10 5 3 6 16 20 30 32 33 32 31 35 36 33 31 27 24 20 15 11 9 11 12 13 14 14 15 16 19 22 19 18 13 18 18 19 21
14 12 12 16 9 3 5 11 15 15 13 8 9 16 1 10 19 24 29 29 31 31 34 37 36 33 30 28 25 22 18 12 10 10 10 10 11 12 12 13 15 13 12 15 17 15 14 15 19
18 15 21 11 10 8 8 15 18 16 17 17 5 9 6 17 23 27 28 29 33 34 37 32 37 34 30 28 25 22 19 15 11 11 9 7 8 10 10 11 12 13 14 16 15 14 14 15 19
10 12 20 16 16 13 12 18 10 17 18 13 7 8 8 19 29 27 28 31 34 39 35 34 34 37 34 32 28 24 20 19 15 13 10 8 8 9 10 11 12 13 15 15 15 14 15 17 20
6 12 18 22 14 9 11 18 9 9 16 12 14 11 9 20 27 29 32 33 36 38 38 35 35 35 34 32 31 25 20 19 17 16 14 7 5 9 12 15 16 15 16 16 16 18 19 19 21
15 18 23 5 11 10 10 18 14 12 22 28 24 23 25 20 28 35 38 39 41 41 41 40 38 36 36 35 31 28 28 27 22 22 20 14 8 4 10 16 19 18 16 16 16 16 17 19 21
9 18 5 5 8 5 7 12 13 16 25 24 28 31 32 30 31 37 40 41 44 42 42 44 42 39 41 42 34 34 33 30 32 31 26 22 17 12 16 12 16 16 14 11 12 12 10 10 12
14 10 8 3 2 3 11 5 13 33 38 11 18 21 31 36 39 42 44 45 44 47 47 48 45 44 44 42 44 39 40 42 41 33 32 30 27 20 20 19 20 15 18 17 13 6 4 3 5
16 6 7 6 4 9 8 17 22 37 31 34 25 27 28 35 40 41 43 43 45 48 49 50 53 50 47 46 52 50 49 47 43 44 41 41 36 31 28 25 24 23 22 25 23 20 15 6 3
2 9 11 9 12 11 11 21 4 20 18 35 39 37 35 36 40 40 44 48 51 53 53 51 58 57 52 52 45 41 49 51 53 50 47 44 41 41 40 35 35 34 31 28 27 24 21 19 9
3 10 12 21 15 8 6 21 32 42 36 27 25 33 38 44 42 47 48 51 53 56 54 57 62 67 63 62 57 54 46 46 55 54 53 49 48 50 45 46 44 38 37 36 37 32 27 22 21
8 6 15 14 11 5 9 24 10 3 12 31 31 37 41 44 47 48 48 50 54 55 58 60 69 71 73 70 70 66 57 53 60 59 55 57 54 56 55 55 55 50 48 43 42 39 34 31 26
12 16 15 6 8 3 18 20 7 5 12 24 27 30 34 39 45 50 53 57 57 57 60 68 71 73 75 73 73 71 70 67 65 67 65 63 60 59 60 62 57 57 51 47 49 46 40 38 34
19 16 13 18 8 9 19 38 35 43 47 52 52 52 54 53 49 44 50 57 59 61 65 67 72 73 75 74 75 73 74 77 74 77 77 68 68 66 63 65 62 60 60 55 55 56 50 42 40
14 17 26 26 4 6 29 41 42 44 48 58 58 56 58 58 51 49 47 53 56 64 69 73 73 77 78 81 81 80 80 79 80 79 79 82 79 70 71 69 67 63 63 66 60 61 59 56 51
20 27 31 28 13 6 31 39 47 46 54 64 65 67 66 59 51 46 50 55 65 65 68 73 77 78 81 84 83 80 76 76 75 79 81 83 86 77 78 77 69 68 71 72 57 69 70 61 52
27 30 28 31 21 26 26 32 33 27 25 40 52 61 56 52 47 39 45 57 63 67 71 73 75 80 80 81 79 76 72 70 78 78 79 85 89 87 83 83 75 73 76 73 67 71 87 75 61
22 19 27 26 12 17 3 21 33 38 39 31 47 56 46 39 35 30 35 44 58 57 64 70 73 77 78 78 81 82 82 80 73 70 71 78 86 91 93 85 84 81 85 77 78 84 85 83 66
6 6 9 7 15 26 29 19 14 20 20 28 39 39 27 18 21 18 19 31 41 43 51 58 66 69 72 78 78 82 83 72 61 62 67 73 79 84 86 85 81 83 80 78 86 87 88 85 73
24 13 8 5 7 17 27 26 27 23 23 23 25 7 9 11 8 5 4 11 21 31 39 48 55 63 67 71 75 79 74 69 63 66 67 68 74 74 80 83 84 82 78 87 83 73 97 93 79
21 15 7 9 10 20 5 16 37 21 32 30 32 16 13 15 13 12 18 20 18 18 23 33 42 52 58 67 69 73 71 66 67 67 65 63 70 75 79 79 84 78 81 71 67 71 80 95 85
28 23 13 13 15 24 13 19 13 19 20 29 48 38 24 25 25 28 21 18 17 17 18 21 26 35 44 53 63 66 69 71 72 67 67 64 65 67 73 73 73 75 70 70 73 87 78 98 88
16 21 29 25 3 10 21 46 43 22 26 29 36 38 40 29 22 20 20 17 13 11 7 4 10 20 31 39 49 57 65 69 73 67 66 66 65 65 66 67 78 74 74 69 75 80 87 91 85
18 7 10 13 10 17 27 31 24 16 25 26 28 38 30 19 18 19 23 25 21 18 12 7 1 9 18 27 36 47 56 60 63 66 69 65 61 61 61 64 68 71 72 81 84 74 76 82 81
19 15 14 12 16 8 19 24 7 18 14 16 17 21 23 26 24 29 29 26 22 14 8 4 6 11 15 22 28 37 47 56 59 66 64 62 62 61 64 65 70 70 79 78 76 83 79 81 77
30 35 41 16 17 15 16 37 10 12 11 15 20 10 7 20 29 33 28 22 17 13 10 8 7 17 20 25 31 38 44 53 60 63 61 62 60 60 60 64 70 74 70 78 80 81 82 81 79
Wind_Direction_500mb
271 325 34 260 246 234 137 126 24 152 167 110 171 224 327 2 352 20 144 156 159 158 175 173 168 167 165 162 145 134 112 93 87 88 86 85 85 87 91 94 101 104 98 99 96 83 84 88 89
195 170 247 259 259 258 88 102 190 182 80 155 182 234 269 63 66 119 148 156 156 158 172 178 175 174 174 170 165 155 125 112 102 94 87 83 85 89 92 97 103 100 99 111 111 96 92 88 84
170 170 249 258 281 349 27 108 153 122 144 189 213 240 315 39 158 150 161 158 159 160 167 181 179 177 179 179 171 164 133 133 115 104 93 85 80 82 87 93 95 101 109 122 115 103 100 89 80
151 213 233 253 286 37 318 93 123 152 164 194 245 231 194 191 162 174 166 162 164 165 168 182 181 180 182 183 180 179 159 140 132 113 98 85 78 80 89 96 101 111 128 126 137 112 93 85 77
197 237 243 236 266 301 196 131 164 179 173 193 205 246 253 206 181 180 167 169 172 173 180 183 183 183 186 187 188 187 184 151 145 131 110 92 83 80 81 93 112 124 130 141 123 100 94 80 76
222 259 238 235 208 171 218 174 177 210 199 164 223 255 248 177 174 168 173 174 181 182 194 192 187 188 191 193 194 195 196 181 167 157 131 107 91 85 90 99 113 124 119 110 112 106 92 83 82
256 226 248 280 264 257 221 173 190 206 203 216 246 258 113 182 176 180 182 181 186 192 194 194 193 193 196 198 200 203 204 198 192 182 158 123 90 80 83 94 103 112 112 116 118 115 106 98 95
254 258 247 247 261 257 145 179 190 218 221 200 202 246 206 193 182 179 180 186 188 198 196 194 194 197 198 199 203 208 207 204 205 201 183 151 119 104 104 107 107 111 116 121 121 115 106 103 100
225 248 240 242 250 261 154 202 190 196 220 205 217 242 202 169 184 177 182 188 191 200 198 197 192 196 198 201 202 203 208 212 209 208 205 176 112 106 117 112 111 112 114 115 114 113 112 109 107
227 232 250 326 286 287 188 225 196 206 215 228 229 226 232 202 191 188 192 195 197 200 201 200 198 198 195 200 204 206 208 217 215 214 212 204 195 184 129 126 118 108 101 102 104 108 112 115 114
204 242 333 266 260 255 240 226 221 232 246 236 241 231 226 215 203 202 205 206 205 204 201 200 204 201 204 210 215 217 217 220 222 214 227 214 222 219 189 180 152 138 120 98 87 84 94 110 115
240 244 262 335 230 238 235 275 243 237 248 285 250 245 211 215 212 213 212 211 210 207 207 206 201 204 209 208 214 220 221 218 220 224 231 223 218 225 220 210 203 195 167 152 144 113 72 49 127
235 223 230 226 210 245 274 255 265 268 257 252 250 235 219 221 222 224 220 218 214 213 210 211 203 204 206 216 211 215 224 226 230 229 227 221 226 221 221 225 225 215 206 190 184 181 173 162 270
62 247 256 250 240 235 253 266 290 263 252 247 243 244 238 230 231 229 223 220 217 215 213 210 212 211 205 210 206 220 224 225 232 226 225 233 228 228 223 224 222 219 219 215 204 194 189 170 174
242 274 238 239 233 242 237 253 238 261 255 257 247 248 248 240 236 231 227 225 221 220 217 213 219 219 216 218 213 212 221 225 232 227 226 231 232 230 228 228 222 225 226 214 215 202 200 189 173
234 243 254 101 181 186 211 264 274 249 252 257 262 257 253 247 239 238 230 229 227 222 219 218 226 223 223 225 226 227 220 225 228 230 228 234 233 232 232 232 226 221 217 219 224 209 204 196 184
208 260 214 248 199 178 218 282 293 292 267 270 270 266 260 254 246 242 235 231 233 224 223 223 229 226 227 227 227 229 231 231 237 234 233 235 238 237 237 235 238 224 227 229 223 215 209 200 188
257 224 227 264 130 230 252 265 268 275 278 276 275 272 265 259 251 244 237 239 232 229 225 229 230 229 228 228 229 231 232 232 231 236 231 232 238 238 236 242 228 229 232 229 231 218 213 207 195
285 282 278 278 156 253 265 277 278 278 276 272 271 268 266 262 258 247 239 241 237 232 230 230 228 230 227 228 230 231 234 237 238 238 233 231 234 237 236 236 239 233 234 231 236 214 215 202 197
243 263 269 282 321 225 278 275 281 274 262 265 271 270 267 268 262 250 234 236 238 237 237 234 232 231 230 232 234 235 237 241 243 240 236 231 231 229 233 240 239 241 237 238 238 227 210 203 206
239 252 263 270 300 248 275 277 256 258 251 261 263 265 267 264 266 256 243 233 246 237 234 236 237 236 233 232 232 233 232 235 241 242 236 231 230 229 231 239 239 242 240 240 244 242 220 222 205
256 249 250 272 290 283 67 286 292 288 275 257 265 265 267 267 264 258 246 235 246 246 242 239 236 234 233 233 231 233 236 237 245 245 241 234 231 229 234 235 239 242 243 246 241 244 231 223 218
244 99 194 223 253 300 265 259 270 250 246 258 261 271 271 252 248 247 241 238 232 238 236 233 230 228 229 231 232 235 237 239 240 241 242 235 233 231 226 231 242 239 238 251 241 235 228 230 221
135 116 123 182 259 261 256 235 273 244 242 262 275 219 217 184 174 176 256 260 242 239 237 234 231 231 230 232 232 234 238 236 236 239 241 238 235 227 229 232 233 235 247 247 247 234 231 227 222
200 175 225 230 200 253 39 266 246 291 277 265 275 264 191 201 215 243 262 252 247 246 240 237 233 229 228 230 231 234 235 235 237 243 248 243 235 232 230 226 236 236 239 242 237 247 236 222 223
199 203 211 234 247 275 103 239 242 240 273 261 252 263 254 244 261 264 248 234 237 241 242 244 243 238 236 237 238 239 238 237 240 242 246 244 238 241 232 234 234 231 239 243 237 244 234 229 226
176 217 250 270 346 280 256 271 272 220 243 253 245 251 254 266 256 244 241 214 187 171 169 206 254 251 251 247 246 242 239 238 239 242 241 242 241 242 235 236 236 244 236 236 236 239 234 225 228
223 206 182 211 232 239 258 256 259 245 246 260 252 250 242 216 209 219 177 160 147 133 115 89 321 273 263 261 254 249 246 241 240 237 239 242 245 239 230 232 233 236 231 233 239 225 228 232 232
186 214 217 239 221 255 275 259 327 334 18 317 288 288 233 214 190 178 168 163 147 130 112 84 346 312 298 284 269 256 248 243 239 240 242 243 242 236 231 233 232 232 232 234 228 227 233 235 228
238 222 214 211 197 221 254 267 68 50 5 328 304 302 207 181 174 176 174 168 176 206 228 211 293 307 295 291 283 268 255 246 242 243 245 243 242 237 233 235 236 238 234 237 233 232 234 231 229
Wind_Speed_850mb
1 2 1 5 11 7 3 7 4 9 9 6 5 5 6 11 13 7 19 24 30 36 35 34 32 29 23 19 16 13 11 13 15 18 20 22 21 20 20 21 23 25 30 32 22 24 31 36 37
6 5 2 5 10 8 13 10 10 11 10 8 8 10 9 3 5 10 30 28 33 34 35 36 35 30 25 23 20 15 10 10 12 17 20 21 20 20 21 20 21 24 35 27 19 19 27 29 33
9 8 10 6 6 7 8 4 8 10 9 9 7 8 9 3 4 16 15 34 34 32 33 36 35 31 27 23 20 15 10 9 10 14 17 18 18 18 19 18 19 29 30 23 17 19 24 25 29
4 5 9 13 6 3 6 6 9 17 7 6 6 9 3 8 13 16 27 33 34 31 30 35 36 33 29 25 22 17 11 12 9 13 15 16 17 16 18 17 20 26 27 22 19 19 21 23 25
7 10 12 10 6 3 3 4 13 14 8 11 10 5 3 6 16 20 30 32 33 32 31 35 36 33 31 27 24 20 15 11 9 11 12 13 14 14 15 16 19 22 19 18 13 18 18 19 21
14 12 12 16 9 3 5 11 15 15 13 8 9 16 1 10 19 24 29 29 31 31 34 37 36 33 30 28 25 22 18 12 10 10 10 10 11 12 12 13 15 13 12 15 17 15 14 15 19
18 15 21 11 10 8 8 15 18 16 17 17 5 9 6 17 23 27 28 29 33 34 37 32 37 34 30 28 25 22 19 15 11 11 9 7 8 10 10 11 12 13 14 16 15 14 14 15 19
10 12 20 16 16 13 12 18 10 17 18 13 7 8 8 19 29 27 28 31 34 39 35 34 34 37 34 32 28 24 20 19 15 13 10 8 8 9 10 11 12 13 15 15 15 14 15 17 20
6 12 18 22 14 9 11 18 9 9 16 12 14 11 9 20 27 29 32 33 36 38 38 35 35 35 34 32 31 25 20 19 17 16 14 7 5 9 12 15 16 15 16 16 16 18 19 19 21
15 18 23 5 11 10 10 18 14 12 22 28 24 23 25 20 28 35 38 39 41 41 41 40 38 36 36 35 31 28 28 27 22 22 20 14 8 4 10 16 19 18 16 16 16 16 17 19 21
9 18 5 5 8 5 7 12 13 16 25 24 28 31 32 30 31 37 40 41 44 42 42 44 42 39 41 42 34 34 33 30 32 31 26 22 17 12 16 12 16 16 14 11 12 12 10 10 12
14 10 8 3 2 3 11 5 13 33 38 11 18 21 31 36 39 42 44 45 44 47 47 48 45 44 44 42 44 39 40 42 41 33 32 30 27 20 20 19 20 15 18 17 13 6 4 3 5
16 6 7 6 4 9 8 17 22 37 31 34 25 27 28 35 40 41 43 43 45 48 49 50 53 50 47 46 52 50 49 47 43 44 41 41 36 31 28 25 24 23 22 25 23 20 15 6 3
2 9 11 9 12 11 11 21 4 20 18 35 39 37 35 36 40 40 44 48 51 53 53 51 58 57 52 52 45 41 49 51 53 50 47 44 41 41 40 35 35 34 31 28 27 24 21 19 9
3 10 12 21 15 8 6 21 32 42 36 27 25 33 38 44 42 47 48 51 53 56 54 57 62 67 63 62 57 54 46 46 55 54 53 49 48 50 45 46 44 38 37 36 37 32 27 22 21
8 6 15 14 11 5 9 24 10 3 12 31 31 37 41 44 47 48 48 50 54 55 58 60 69 71 73 70 70 66 57 53 60 59 55 57 54 56 55 55 55 50 48 43 42 39 34 31 26
12 16 15 6 8 3 18 20 7 5 12 24 27 30 34 39 45 50 53 57 57 57 60 68 71 73 75 73 73 71 70 67 65 67 65 63 60 59 60 62 57 57 51 47 49 46 40 38 34
19 16 13 18 8 9 19 38 35 43 47 52 52 52 54 53 49 44 50 57 59 61 65 67 72 73 75 74 75 73 74 77 74 77 77 68 68 66 63 65 62 60 60 55 55 56 50 42 40
14 17 26 26 4 6 29 41 42 44 48 58 58 56 58 58 51 49 47 53 56 64 69 73 73 77 78 81 81 80 80 79 80 79 79 82 79 70 71 69 67 63 63 66 60 61 59 56 51
20 27 31 28 13 6 31 39 47 46 54 64 65 67 66 59 51 46 50 55 65 65 68 73 77 78 81 84 83 80 76 76 75 79 81 83 86 77 78 77 69 68 71 72 57 69 70 61 52
27 30 28 31 21 26 26 32 33 27 25 40 52 61 56 52 47 39 45 57 63 67 71 73 75 80 80 81 79 76 72 70 78 78 79 85 89 87 83 83 75 73 76 73 67 71 87 75 61
22 19 27 26 12 17 3 21 33 38 39 31 47 56 46 39 35 30 35 44 58 57 64 70 73 77 78 78 81 82 82 80 73 70 71 78 86 91 93 85 84 81 85 77 78 84 85 83 66
6 6 9 7 15 26 29 19 14 20 20 28 39 39 27 18 21 18 19 31 41 43 51 58 66 69 72 78 78 82 83 72 61 62 67 73 79 84 86 85 81 83 80 78 86 87 88 85 73
24 13 8 5 7 17 27 26 27 23 23 23 25 7 9 11 8 5 4 11 21 31 39 48 55 63 67 71 75 79 74 69 63 66 67 68 74 74 80 83 84 82 78 87 83 73 97 93 79
21 15 7 9 10 20 5 16 37 21 32 30 32 16 13 15 13 12 18 20 18 18 23 33 42 52 58 67 69 73 71 66 67 67 65 63 70 75 79 79 84 78 81 71 67 71 80 95 85
28 23 13 13 15 24 13 19 13 19 20 29 48 38 24 25 25 28 21 18 17 17 18 21 26 35 44 53 63 66 69 71 72 67 67 64 65 67 73 73 73 75 70 70 73 87 78 98 88
16 21 29 25 3 10 21 46 43 22 26 29 36 38 40 29 22 20 20 17 13 11 7 4 10 20 31 39 49 57 65 69 73 67 66 66 65 65 66 67 78 74 74 69 75 80 87 91 85
18 7 10 13 10 17 27 31 24 16 25 26 28 38 30 19 18 19 23 25 21 18 12 7 1 9 18 27 36 47 56 60 63 66 69 65 61 61 61 64 68 71 72 81 84 74 76 82 81
19 15 14 12 16 8 19 24 7 18 14 16 17 21 23 26 24 29 29 26 22 14 8 4 6 11 15 22 28 37 47 56 59 66 64 62 62 61 64 65 70 70 79 78 76 83 79 81 77
30 35 41 16 17 15 16 37 10 12 11 15 20 10 7 20 29 33 28 22 17 13 10 8 7 17 20 25 31 38 44 53 60 63 61 62 60 60 60 64 70 74 70 78 80 81 82 81 79
Wind_Direction_850mb
271 325 34 260 246 234 137 126 24 152 167 110 171 224 327 2 352 20 144 156 159 158 175 173 168 167 165 162 145 134 112 93 87 88 86 85 85 87 91 94 101 104 98 99 96 83 84 88 89
195 170 247 259 259 258 88 102 190 182 80 155 182 234 269 63 66 119 148 156 156 158 172 178 175 174 174 170 165 155 125 112 102 94 87 83 85 89 92 97 103 100 99 111 111 96 92 88 84
170 170 249 258 281 349 27 108 153 122 144 189 213 240 315 39 158 150 161 158 159 160 167 181 179 177 179 179 171 164 133 133 115 104 93 85 80 82 87 93 95 101 109 122 115 103 100 89 80
151 213 233 253 286 37 318 93 123 152 164 194 245 231 194 191 162 174 166 162 164 165 168 182 181 180 182 183 180 179 159 140 132 113 98 85 78 80 89 96 101 111 128 126 137 112 93 85 77
197 237 243 236 266 301 196 131 164 179 173 193 205 246 253 206 181 180 167 169 172 173 180 183 183 183 186 187 188 187 184 151 145 131 110 92 83 80 81 93 112 124 130 141 123 100 94 80 76
222 259 238 235 208 171 218 174 177 210 199 164 223 255 248 177 174 168 173 174 181 182 194 192 187 188 191 193 194 195 196 181 167 157 131 107 91 85 90 99 113 124 119 110 112 106 92 83 82
256 226 248 280 264 257 221 173 190 206 203 216 246 258 113 182 176 180 182 181 186 192 194 194 193 193 196 198 200 203 204 198 192 182 158 123 90 80 83 94 103 112 112 116 118 115 106 98 95
254 258 247 247 261 257 145 179 190 218 221 200 202 246 206 193 182 179 180 186 188 198 196 194 194 197 198 199 203 208 207 204 205 201 183 151 119 104 104 107 107 111 116 121 121 115 106 103 100
225 248 240 242 250 261 154 202 190 196 220 205 217 242 202 169 184 177 182 188 191 200 198 197 192 196 198 201 202 203 208 212 209 208 205 176 112 106 117 112 111 112 114 115 114 113 112 109 107
227 232 250 326 286 287 188 225 196 206 215 228 229 226 232 202 191 188 192 195 197 200 201 200 198 198 195 200 204 206 208 217 215 214 212 204 195 184 129 126 118 108 101 102 104 108 112 115 114
204 242 333 266 260 255 240 226 221 232 246 236 241 231 226 215 203 202 205 206 205 204 201 200 204 201 204 210 215 217 217 220 222 214 227 214 222 219 189 180 152 138 120 98 87 84 94 110 115
240 244 262 335 230 238 235 275 243 237 248 285 250 245 211 215 212 213 212 211 210 207 207 206 201 204 209 208 214 220 221 218 220 224 231 223 218 225 220 210 203 195 167 152 144 113 72 49 127
235 223 230 226 210 245 274 255 265 268 257 252 250 235 219 221 222 224 220 218 214 213 210 211 203 204 206 216 211 215 224 226 230 229 227 221 226 221 221 225 225 215 206 190 184 181 173 162 270
62 247 256 250 240 235 253 266 290 263 252 247 243 244 238 230 231 229 223 220 217 215 213 210 212 211 205 210 206 220 224 225 232 226 225 233 228 228 223 224 222 219 219 215 204 194 189 170 174
242 274 238 239 233 242 237 253 238 261 255 257 247 248 248 240 236 231 227 225 221 220 217 213 219 219 216 218 213 212 221 225 232 227 226 231 232 230 228 228 222 225 226 214 215 202 200 189 173
234 243 254 101 181 186 211 264 274 249 252 257 262 257 253 247 239 238 230 229 227 222 219 218 226 223 223 225 226 227 220 225 228 230 228 234 233 232 232 232 226 221 217 219 224 209 204 196 184
208 260 214 248 199 178 218 282 293 292 267 270 270 266 260 254 246 242 235 231 233 224 223 223 229 226 227 227 227 229 231 231 237 234 233 235 238 237 237 235 238 224 227 229 223 215 209 200 188
257 224 227 264 130 230 252 265 268 275 278 276 275 272 265 259 251 244 237 239 232 229 225 229 230 229 228 228 229 231 232 232 231 236 231 232 238 238 236 242 228 229 232 229 231 218 213 207 195
285 282 278 278 156 253 265 277 278 278 276 272 271 268 266 262 258 247 239 241 237 232 230 230 228 230 227 228 230 231 234 237 238 238 233 231 234 237 236 236 239 233 234 231 236 214 215 202 197
243 263 269 282 321 225 278 275 281 274 262 265 271 270 267 268 262 250 234 236 238 237 237 234 232 231 230 232 234 235 237 241 243 240 236 231 231 229 233 240 239 241 237 238 238 227 210 203 206
239 252 263 270 300 248 275 277 256 258 251 261 263 265 267 264 266 256 243 233 246 237 234 236 237 236 233 232 232 233 232 235 241 242 236 231 230 229 231 239 239 242 240 240 244 242 220 222 205
256 249 250 272 290 283 67 286 292 288 275 257 265 265 267 267 264 258 246 235 246 246 242 239 236 234 233 233 231 233 236 237 245 245 241 234 231 229 234 235 239 242 243 246 241 244 231 223 218
244 99 194 223 253 300 265 259 270 250 246 258 261 271 271 252 248 247 241 238 232 238 236 233 230 228 229 231 232 235 237 239 240 241 242 235 233 231 226 231 242 239 238 251 241 235 228 230 221
135 116 123 182 259 261 256 235 273 244 242 262 275 219 217 184 174 176 256 260 242 239 237 234 231 231 230 232 232 234 238 236 236 239 241 238 235 227 229 232 233 235 247 247 247 234 231 227 222
200 175 225 230 200 253 39 266 246 291 277 265 275 264 191 201 215 243 262 252 247 246 240 237 233 229 228 230 231 234 235 235 237 243 248 243 235 232 230 226 236 236 239 242 237 247 236 222 223
199 203 211 234 247 275 103 239 242 240 273 261 252 263 254 244 261 264 248 234 237 241 242 244 243 238 236 237 238 239 238 237 240 242 246 244 238 241 232 234 234 231 239 243 237 244 234 229 226
176 217 250 270 346 280 256 271 272 220 243 253 245 251 254 266 256 244 241 214 187 171 169 206 254 251 251 247 246 242 239 238 239 242 241 242 241 242 235 236 236 244 236 236 236 239 234 225 228
223 206 182 211 232 239 258 256 259 245 246 260 252 250 242 216 209 219 177 160 147 133 115 89 321 273 263 261 254 249 246 241 240 237 239 242 245 239 230 232 233 236 231 233 239 225 228 232 232
186 214 217 239 221 255 275 259 327 334 18 317 288 288 233 214 190 178 168 163 147 130 112 84 346 312 298 284 269 256 248 243 239 240 242 243 242 236 231 233 232 232 232 234 228 227 233 235 228
238 222 214 211 197 221 254 267 68 50 5 328 304 302 207 181 174 176 174 168 176 206 228 211 293 307 295 291 283 268 255 246 242 243 245 243 242 237 233 235 236 238 234 237 233 232 234 231 229